#datetime,building,power
2023-08-16T00:00:00,sdl,2.12
2023-08-16T00:01:00,sdl,3.24
2023-08-16T00:02:00,sdl,3.48
2023-08-16T00:03:00,sdl,4.29
2023-08-16T00:04:00,sdl,4.42
2023-08-16T00:05:00,sdl,4.57
2023-08-16T00:06:00,sdl,5.17
2023-08-16T00:07:00,sdl,4.70
2023-08-16T00:08:00,sdl,4.69
2023-08-16T00:09:00,sdl,5.65
2023-08-16T00:10:00,sdl,5.01
2023-08-16T00:11:00,sdl,4.63
2023-08-16T00:12:00,sdl,4.43
2023-08-16T00:13:00,sdl,2.78
2023-08-16T00:14:00,sdl,1.86
2023-08-16T00:15:00,sdl,1.82
2023-08-16T00:16:00,sdl,1.91
2023-08-16T00:17:00,sdl,4.15
2023-08-16T00:18:00,sdl,4.07
2023-08-16T00:19:00,sdl,4.20
2023-08-16T00:20:00,sdl,4.61
2023-08-16T00:21:00,sdl,5.27
2023-08-16T00:22:00,sdl,5.98
2023-08-16T00:23:00,sdl,6.57
2023-08-16T00:24:00,sdl,7.37
2023-08-16T00:25:00,sdl,6.69
2023-08-16T00:26:00,sdl,6.64
2023-08-16T00:27:00,sdl,6.36
2023-08-16T00:28:00,sdl,6.36
2023-08-16T00:29:00,sdl,6.29
2023-08-16T00:30:00,sdl,6.32
2023-08-16T00:31:00,sdl,6.56
2023-08-16T00:32:00,sdl,4.89
2023-08-16T00:33:00,sdl,4.45
2023-08-16T00:34:00,sdl,4.57
2023-08-16T00:35:00,sdl,2.16
2023-08-16T00:36:00,sdl,2.45
2023-08-16T00:37:00,sdl,2.23
2023-08-16T00:38:00,sdl,2.32
2023-08-16T00:39:00,sdl,2.24
2023-08-16T00:40:00,sdl,3.64
2023-08-16T00:41:00,sdl,3.69
2023-08-16T00:42:00,sdl,3.77
2023-08-16T00:43:00,sdl,4.05
2023-08-16T00:44:00,sdl,4.38
2023-08-16T00:45:00,sdl,4.58
2023-08-16T00:46:00,sdl,4.49
2023-08-16T00:47:00,sdl,3.98
2023-08-16T00:48:00,sdl,3.93
2023-08-16T00:49:00,sdl,3.89
2023-08-16T00:50:00,sdl,3.90
2023-08-16T00:51:00,sdl,3.92
2023-08-16T00:52:00,sdl,2.20
2023-08-16T00:53:00,sdl,2.17
2023-08-16T00:54:00,sdl,2.16
2023-08-16T00:55:00,sdl,2.16
2023-08-16T00:56:00,sdl,1.95
2023-08-16T00:57:00,sdl,2.22
2023-08-16T00:58:00,sdl,2.25
2023-08-16T00:59:00,sdl,2.96
2023-08-16T01:00:00,sdl,3.21
2023-08-16T01:01:00,sdl,3.17
2023-08-16T01:02:00,sdl,3.46
2023-08-16T01:03:00,sdl,3.36
2023-08-16T01:04:00,sdl,3.36
2023-08-16T01:05:00,sdl,3.40
2023-08-16T01:06:00,sdl,3.35
2023-08-16T01:07:00,sdl,3.41
2023-08-16T01:08:00,sdl,3.48
2023-08-16T01:09:00,sdl,3.45
2023-08-16T01:10:00,sdl,5.85
2023-08-16T01:11:00,sdl,3.96
2023-08-16T01:12:00,sdl,3.90
2023-08-16T01:13:00,sdl,4.04
2023-08-16T01:14:00,sdl,4.10
2023-08-16T01:15:00,sdl,4.14
2023-08-16T01:16:00,sdl,4.14
2023-08-16T01:17:00,sdl,4.14
2023-08-16T01:18:00,sdl,4.68
2023-08-16T01:19:00,sdl,5.36
2023-08-16T01:20:00,sdl,5.88
2023-08-16T01:21:00,sdl,6.67
2023-08-16T01:22:00,sdl,6.54
2023-08-16T01:23:00,sdl,5.77
2023-08-16T01:24:00,sdl,2.83
2023-08-16T01:25:00,sdl,4.12
2023-08-16T01:26:00,sdl,3.43
2023-08-16T01:27:00,sdl,3.44
2023-08-16T01:28:00,sdl,3.51
2023-08-16T01:29:00,sdl,1.89
2023-08-16T01:30:00,sdl,1.98
2023-08-16T01:31:00,sdl,1.97
2023-08-16T01:32:00,sdl,1.93
2023-08-16T01:33:00,sdl,1.98
2023-08-16T01:34:00,sdl,2.15
2023-08-16T01:35:00,sdl,2.01
2023-08-16T01:36:00,sdl,3.26
2023-08-16T01:37:00,sdl,3.32
2023-08-16T01:38:00,sdl,3.39
2023-08-16T01:39:00,sdl,5.40
2023-08-16T01:40:00,sdl,5.62
2023-08-16T01:41:00,sdl,5.60
2023-08-16T01:42:00,sdl,6.11
2023-08-16T01:43:00,sdl,6.19
2023-08-16T01:44:00,sdl,5.70
2023-08-16T01:45:00,sdl,5.74
2023-08-16T01:46:00,sdl,4.94
2023-08-16T01:47:00,sdl,4.83
2023-08-16T01:48:00,sdl,4.09
2023-08-16T01:49:00,sdl,4.12
2023-08-16T01:50:00,sdl,4.12
2023-08-16T01:51:00,sdl,1.95
2023-08-16T01:52:00,sdl,1.91
2023-08-16T01:53:00,sdl,3.10
2023-08-16T01:54:00,sdl,3.06
2023-08-16T01:55:00,sdl,3.62
2023-08-16T01:56:00,sdl,3.40
2023-08-16T01:57:00,sdl,3.41
2023-08-16T01:58:00,sdl,3.67
2023-08-16T01:59:00,sdl,3.50
2023-08-16T02:00:00,sdl,3.74
2023-08-16T02:01:00,sdl,5.20
2023-08-16T02:02:00,sdl,5.61
2023-08-16T02:03:00,sdl,5.73
2023-08-16T02:04:00,sdl,5.21
2023-08-16T02:05:00,sdl,5.16
2023-08-16T02:06:00,sdl,9.84
2023-08-16T02:07:00,sdl,10.21
2023-08-16T02:08:00,sdl,10.89
2023-08-16T02:09:00,sdl,10.84
2023-08-16T02:10:00,sdl,11.39
2023-08-16T02:11:00,sdl,10.84
2023-08-16T02:12:00,sdl,12.99
2023-08-16T02:13:00,sdl,12.40
2023-08-16T02:14:00,sdl,12.42
2023-08-16T02:15:00,sdl,12.32
2023-08-16T02:16:00,sdl,14.51
2023-08-16T02:17:00,sdl,14.59
2023-08-16T02:18:00,sdl,14.57
2023-08-16T02:19:00,sdl,14.70
2023-08-16T02:20:00,sdl,14.86
2023-08-16T02:21:00,sdl,14.81
2023-08-16T02:22:00,sdl,15.13
2023-08-16T02:23:00,sdl,15.16
2023-08-16T02:24:00,sdl,14.08
2023-08-16T02:25:00,sdl,14.06
2023-08-16T02:26:00,sdl,14.27
2023-08-16T02:27:00,sdl,14.26
2023-08-16T02:28:00,sdl,14.57
2023-08-16T02:29:00,sdl,14.47
2023-08-16T02:30:00,sdl,14.14
2023-08-16T02:31:00,sdl,15.04
2023-08-16T02:32:00,sdl,15.00
2023-08-16T02:33:00,sdl,13.21
2023-08-16T02:34:00,sdl,13.06
2023-08-16T02:35:00,sdl,13.08
2023-08-16T02:36:00,sdl,12.93
2023-08-16T02:37:00,sdl,12.95
2023-08-16T02:38:00,sdl,12.99
2023-08-16T02:39:00,sdl,13.06
2023-08-16T02:40:00,sdl,12.83
2023-08-16T02:41:00,sdl,11.87
2023-08-16T02:42:00,sdl,11.78
2023-08-16T02:43:00,sdl,11.77
2023-08-16T02:44:00,sdl,11.76
2023-08-16T02:45:00,sdl,11.64
2023-08-16T02:46:00,sdl,11.65
2023-08-16T02:47:00,sdl,11.88
2023-08-16T02:48:00,sdl,12.46
2023-08-16T02:49:00,sdl,12.52
2023-08-16T02:50:00,sdl,12.42
2023-08-16T02:51:00,sdl,12.47
2023-08-16T02:52:00,sdl,12.36
2023-08-16T02:53:00,sdl,12.17
2023-08-16T02:54:00,sdl,12.34
2023-08-16T02:55:00,sdl,12.32
2023-08-16T02:56:00,sdl,12.40
2023-08-16T02:57:00,sdl,11.46
2023-08-16T02:58:00,sdl,11.42
2023-08-16T02:59:00,sdl,11.59
2023-08-16T03:00:00,sdl,11.28
2023-08-16T03:01:00,sdl,11.13
2023-08-16T03:02:00,sdl,10.97
2023-08-16T03:03:00,sdl,11.21
2023-08-16T03:04:00,sdl,12.21
2023-08-16T03:05:00,sdl,12.49
2023-08-16T03:06:00,sdl,14.68
2023-08-16T03:07:00,sdl,14.24
2023-08-16T03:08:00,sdl,14.20
2023-08-16T03:09:00,sdl,14.60
2023-08-16T03:10:00,sdl,14.39
2023-08-16T03:11:00,sdl,14.50
2023-08-16T03:12:00,sdl,13.54
2023-08-16T03:13:00,sdl,13.46
2023-08-16T03:14:00,sdl,13.48
2023-08-16T03:15:00,sdl,13.46
2023-08-16T03:16:00,sdl,13.42
2023-08-16T03:17:00,sdl,13.35
2023-08-16T03:18:00,sdl,13.29
2023-08-16T03:19:00,sdl,14.31
2023-08-16T03:20:00,sdl,14.18
2023-08-16T03:21:00,sdl,12.11
2023-08-16T03:22:00,sdl,12.10
2023-08-16T03:23:00,sdl,12.61
2023-08-16T03:24:00,sdl,12.10
2023-08-16T03:25:00,sdl,12.30
2023-08-16T03:26:00,sdl,12.30
2023-08-16T03:27:00,sdl,12.44
2023-08-16T03:28:00,sdl,11.55
2023-08-16T03:29:00,sdl,11.48
2023-08-16T03:30:00,sdl,11.60
2023-08-16T03:31:00,sdl,11.45
2023-08-16T03:32:00,sdl,11.50
2023-08-16T03:33:00,sdl,11.45
2023-08-16T03:34:00,sdl,11.40
2023-08-16T03:35:00,sdl,14.62
2023-08-16T03:36:00,sdl,14.44
2023-08-16T03:37:00,sdl,14.54
2023-08-16T03:38:00,sdl,14.67
2023-08-16T03:39:00,sdl,14.87
2023-08-16T03:40:00,sdl,14.73
2023-08-16T03:41:00,sdl,14.55
2023-08-16T03:42:00,sdl,14.67
2023-08-16T03:43:00,sdl,15.02
2023-08-16T03:44:00,sdl,14.30
2023-08-16T03:45:00,sdl,13.82
2023-08-16T03:46:00,sdl,13.75
2023-08-16T03:47:00,sdl,13.92
2023-08-16T03:48:00,sdl,11.57
2023-08-16T03:49:00,sdl,11.56
2023-08-16T03:50:00,sdl,11.56
2023-08-16T03:51:00,sdl,12.45
2023-08-16T03:52:00,sdl,12.32
2023-08-16T03:53:00,sdl,12.94
2023-08-16T03:54:00,sdl,12.29
2023-08-16T03:55:00,sdl,12.64
2023-08-16T03:56:00,sdl,12.30
2023-08-16T03:57:00,sdl,12.27
2023-08-16T03:58:00,sdl,12.27
2023-08-16T03:59:00,sdl,11.45
2023-08-16T04:00:00,sdl,11.39
2023-08-16T04:01:00,sdl,11.28
2023-08-16T04:02:00,sdl,11.38
2023-08-16T04:03:00,sdl,11.40
2023-08-16T04:04:00,sdl,11.37
2023-08-16T04:05:00,sdl,11.29
2023-08-16T04:06:00,sdl,12.19
2023-08-16T04:07:00,sdl,12.10
2023-08-16T04:08:00,sdl,12.73
2023-08-16T04:09:00,sdl,12.10
2023-08-16T04:10:00,sdl,12.12
2023-08-16T04:11:00,sdl,12.29
2023-08-16T04:12:00,sdl,12.07
2023-08-16T04:13:00,sdl,14.33
2023-08-16T04:14:00,sdl,14.37
2023-08-16T04:15:00,sdl,13.42
2023-08-16T04:16:00,sdl,13.83
2023-08-16T04:17:00,sdl,13.84
2023-08-16T04:18:00,sdl,13.55
2023-08-16T04:19:00,sdl,13.50
2023-08-16T04:20:00,sdl,13.83
2023-08-16T04:21:00,sdl,13.49
2023-08-16T04:22:00,sdl,13.54
2023-08-16T04:23:00,sdl,14.65
2023-08-16T04:24:00,sdl,14.31
2023-08-16T04:25:00,sdl,14.25
2023-08-16T04:26:00,sdl,14.23
2023-08-16T04:27:00,sdl,14.40
2023-08-16T04:28:00,sdl,15.20
2023-08-16T04:29:00,sdl,14.42
2023-08-16T04:30:00,sdl,14.45
2023-08-16T04:31:00,sdl,13.49
2023-08-16T04:32:00,sdl,11.37
2023-08-16T04:33:00,sdl,11.32
2023-08-16T04:34:00,sdl,11.37
2023-08-16T04:35:00,sdl,11.62
2023-08-16T04:36:00,sdl,11.66
2023-08-16T04:37:00,sdl,11.42
2023-08-16T04:38:00,sdl,12.17
2023-08-16T04:39:00,sdl,12.26
2023-08-16T04:40:00,sdl,12.29
2023-08-16T04:41:00,sdl,12.30
2023-08-16T04:42:00,sdl,12.93
2023-08-16T04:43:00,sdl,12.17
2023-08-16T04:44:00,sdl,12.15
2023-08-16T04:45:00,sdl,12.16
2023-08-16T04:46:00,sdl,11.21
2023-08-16T04:47:00,sdl,11.24
2023-08-16T04:48:00,sdl,11.39
2023-08-16T04:49:00,sdl,11.24
2023-08-16T04:50:00,sdl,11.52
2023-08-16T04:51:00,sdl,11.74
2023-08-16T04:52:00,sdl,11.19
2023-08-16T04:53:00,sdl,12.28
2023-08-16T04:54:00,sdl,12.11
2023-08-16T04:55:00,sdl,14.26
2023-08-16T04:56:00,sdl,14.68
2023-08-16T04:57:00,sdl,14.75
2023-08-16T04:58:00,sdl,14.42
2023-08-16T04:59:00,sdl,14.27
2023-08-16T05:00:00,sdl,14.46
2023-08-16T05:01:00,sdl,13.34
2023-08-16T05:02:00,sdl,14.02
2023-08-16T05:03:00,sdl,14.16
2023-08-16T05:04:00,sdl,14.35
2023-08-16T05:05:00,sdl,12.34
2023-08-16T05:06:00,sdl,11.94
2023-08-16T05:07:00,sdl,11.86
2023-08-16T05:08:00,sdl,11.96
2023-08-16T05:09:00,sdl,12.94
2023-08-16T05:10:00,sdl,12.18
2023-08-16T05:11:00,sdl,12.15
2023-08-16T05:12:00,sdl,12.22
2023-08-16T05:13:00,sdl,12.46
2023-08-16T05:14:00,sdl,12.26
2023-08-16T05:15:00,sdl,12.28
2023-08-16T05:16:00,sdl,12.28
2023-08-16T05:17:00,sdl,11.30
2023-08-16T05:18:00,sdl,11.21
2023-08-16T05:19:00,sdl,13.40
2023-08-16T05:20:00,sdl,13.33
2023-08-16T05:21:00,sdl,13.31
2023-08-16T05:22:00,sdl,13.36
2023-08-16T05:23:00,sdl,13.39
2023-08-16T05:24:00,sdl,13.57
2023-08-16T05:25:00,sdl,14.42
2023-08-16T05:26:00,sdl,14.40
2023-08-16T05:27:00,sdl,14.41
2023-08-16T05:28:00,sdl,15.53
2023-08-16T05:29:00,sdl,15.84
2023-08-16T05:30:00,sdl,16.23
2023-08-16T05:31:00,sdl,16.29
2023-08-16T05:32:00,sdl,15.82
2023-08-16T05:33:00,sdl,15.81
2023-08-16T05:34:00,sdl,15.81
2023-08-16T05:35:00,sdl,15.77
2023-08-16T05:36:00,sdl,15.79
2023-08-16T05:37:00,sdl,16.01
2023-08-16T05:38:00,sdl,15.82
2023-08-16T05:39:00,sdl,13.68
2023-08-16T05:40:00,sdl,13.64
2023-08-16T05:41:00,sdl,13.80
2023-08-16T05:42:00,sdl,13.90
2023-08-16T05:43:00,sdl,13.90
2023-08-16T05:44:00,sdl,13.84
2023-08-16T05:45:00,sdl,13.80
2023-08-16T05:46:00,sdl,13.88
2023-08-16T05:47:00,sdl,12.86
2023-08-16T05:48:00,sdl,13.44
2023-08-16T05:49:00,sdl,13.53
2023-08-16T05:50:00,sdl,13.43
2023-08-16T05:51:00,sdl,13.31
2023-08-16T05:52:00,sdl,15.56
2023-08-16T05:53:00,sdl,14.42
2023-08-16T05:54:00,sdl,14.51
2023-08-16T05:55:00,sdl,15.13
2023-08-16T05:56:00,sdl,14.36
2023-08-16T05:57:00,sdl,17.12
2023-08-16T05:58:00,sdl,17.83
2023-08-16T05:59:00,sdl,17.01
2023-08-16T06:00:00,sdl,17.00
2023-08-16T06:01:00,sdl,17.02
2023-08-16T06:02:00,sdl,16.93
2023-08-16T06:03:00,sdl,16.91
2023-08-16T06:04:00,sdl,17.05
2023-08-16T06:05:00,sdl,16.95
2023-08-16T06:06:00,sdl,17.09
2023-08-16T06:07:00,sdl,15.68
2023-08-16T06:08:00,sdl,17.29
2023-08-16T06:09:00,sdl,17.07
2023-08-16T06:10:00,sdl,17.20
2023-08-16T06:11:00,sdl,15.99
2023-08-16T06:12:00,sdl,17.66
2023-08-16T06:13:00,sdl,15.91
2023-08-16T06:14:00,sdl,15.66
2023-08-16T06:15:00,sdl,15.87
2023-08-16T06:16:00,sdl,15.75
2023-08-16T06:17:00,sdl,15.45
2023-08-16T06:18:00,sdl,15.51
2023-08-16T06:19:00,sdl,15.77
2023-08-16T06:20:00,sdl,15.82
2023-08-16T06:21:00,sdl,15.75
2023-08-16T06:22:00,sdl,15.81
2023-08-16T06:23:00,sdl,13.62
2023-08-16T06:24:00,sdl,13.77
2023-08-16T06:25:00,sdl,13.60
2023-08-16T06:26:00,sdl,13.51
2023-08-16T06:27:00,sdl,13.49
2023-08-16T06:28:00,sdl,13.52
2023-08-16T06:29:00,sdl,13.48
2023-08-16T06:30:00,sdl,13.52
2023-08-16T06:31:00,sdl,13.48
2023-08-16T06:32:00,sdl,13.67
2023-08-16T06:33:00,sdl,13.91
2023-08-16T06:34:00,sdl,15.63
2023-08-16T06:35:00,sdl,17.12
2023-08-16T06:36:00,sdl,17.42
2023-08-16T06:37:00,sdl,17.48
2023-08-16T06:38:00,sdl,17.24
2023-08-16T06:39:00,sdl,17.07
2023-08-16T06:40:00,sdl,17.53
2023-08-16T06:41:00,sdl,17.01
2023-08-16T06:42:00,sdl,16.99
2023-08-16T06:43:00,sdl,17.46
2023-08-16T06:44:00,sdl,17.43
2023-08-16T06:45:00,sdl,17.21
2023-08-16T06:46:00,sdl,17.08
2023-08-16T06:47:00,sdl,17.12
2023-08-16T06:48:00,sdl,15.86
2023-08-16T06:49:00,sdl,15.79
2023-08-16T06:50:00,sdl,15.86
2023-08-16T06:51:00,sdl,15.79
2023-08-16T06:52:00,sdl,15.76
2023-08-16T06:53:00,sdl,15.76
2023-08-16T06:54:00,sdl,15.77
2023-08-16T06:55:00,sdl,15.83
2023-08-16T06:56:00,sdl,15.76
2023-08-16T06:57:00,sdl,15.72
2023-08-16T06:58:00,sdl,15.61
2023-08-16T06:59:00,sdl,15.36
2023-08-16T07:00:00,sdl,15.67
2023-08-16T07:01:00,sdl,15.49
2023-08-16T07:02:00,sdl,15.52
2023-08-16T07:03:00,sdl,13.82
2023-08-16T07:04:00,sdl,13.80
2023-08-16T07:05:00,sdl,14.25
2023-08-16T07:06:00,sdl,14.04
2023-08-16T07:07:00,sdl,13.97
2023-08-16T07:08:00,sdl,14.39
2023-08-16T07:09:00,sdl,13.52
2023-08-16T07:10:00,sdl,13.45
2023-08-16T07:11:00,sdl,13.39
2023-08-16T07:12:00,sdl,13.38
2023-08-16T07:13:00,sdl,13.24
2023-08-16T07:14:00,sdl,13.43
2023-08-16T07:15:00,sdl,13.27
2023-08-16T07:16:00,sdl,13.53
2023-08-16T07:17:00,sdl,13.54
2023-08-16T07:18:00,sdl,13.67
2023-08-16T07:19:00,sdl,13.65
2023-08-16T07:20:00,sdl,13.67
2023-08-16T07:21:00,sdl,13.73
2023-08-16T07:22:00,sdl,14.24
2023-08-16T07:23:00,sdl,14.88
2023-08-16T07:24:00,sdl,14.14
2023-08-16T07:25:00,sdl,14.01
2023-08-16T07:26:00,sdl,13.76
2023-08-16T07:27:00,sdl,13.80
2023-08-16T07:28:00,sdl,13.79
2023-08-16T07:29:00,sdl,13.74
2023-08-16T07:30:00,sdl,14.26
2023-08-16T07:31:00,sdl,14.16
2023-08-16T07:32:00,sdl,15.69
2023-08-16T07:33:00,sdl,19.15
2023-08-16T07:34:00,sdl,20.12
2023-08-16T07:35:00,sdl,19.16
2023-08-16T07:36:00,sdl,19.40
2023-08-16T07:37:00,sdl,19.75
2023-08-16T07:38:00,sdl,19.46
2023-08-16T07:39:00,sdl,19.64
2023-08-16T07:40:00,sdl,19.75
2023-08-16T07:41:00,sdl,19.78
2023-08-16T07:42:00,sdl,19.74
2023-08-16T07:43:00,sdl,19.78
2023-08-16T07:44:00,sdl,19.59
2023-08-16T07:45:00,sdl,19.27
2023-08-16T07:46:00,sdl,19.48
2023-08-16T07:47:00,sdl,19.53
2023-08-16T07:48:00,sdl,19.04
2023-08-16T07:49:00,sdl,19.43
2023-08-16T07:50:00,sdl,19.30
2023-08-16T07:51:00,sdl,19.49
2023-08-16T07:52:00,sdl,19.94
2023-08-16T07:53:00,sdl,19.82
2023-08-16T07:54:00,sdl,19.80
2023-08-16T07:55:00,sdl,19.66
2023-08-16T07:56:00,sdl,20.86
2023-08-16T07:57:00,sdl,24.69
2023-08-16T07:58:00,sdl,24.23
2023-08-16T07:59:00,sdl,24.47
2023-08-16T08:00:00,sdl,24.68
2023-08-16T08:01:00,sdl,24.70
2023-08-16T08:02:00,sdl,24.78
2023-08-16T08:03:00,sdl,24.69
2023-08-16T08:04:00,sdl,24.84
2023-08-16T08:05:00,sdl,25.80
2023-08-16T08:06:00,sdl,25.84
2023-08-16T08:07:00,sdl,25.70
2023-08-16T08:08:00,sdl,25.77
2023-08-16T08:09:00,sdl,25.82
2023-08-16T08:10:00,sdl,25.79
2023-08-16T08:11:00,sdl,25.37
2023-08-16T08:12:00,sdl,25.67
2023-08-16T08:13:00,sdl,25.85
2023-08-16T08:14:00,sdl,26.25
2023-08-16T08:15:00,sdl,23.06
2023-08-16T08:16:00,sdl,23.35
2023-08-16T08:17:00,sdl,23.24
2023-08-16T08:18:00,sdl,23.27
2023-08-16T08:19:00,sdl,23.71
2023-08-16T08:20:00,sdl,23.36
2023-08-16T08:21:00,sdl,26.31
2023-08-16T08:22:00,sdl,26.43
2023-08-16T08:23:00,sdl,22.75
2023-08-16T08:24:00,sdl,22.67
2023-08-16T08:25:00,sdl,22.90
2023-08-16T08:26:00,sdl,22.91
2023-08-16T08:27:00,sdl,23.01
2023-08-16T08:28:00,sdl,22.68
2023-08-16T08:29:00,sdl,24.29
2023-08-16T08:30:00,sdl,23.02
2023-08-16T08:31:00,sdl,22.92
2023-08-16T08:32:00,sdl,22.62
2023-08-16T08:33:00,sdl,23.14
2023-08-16T08:34:00,sdl,22.41
2023-08-16T08:35:00,sdl,22.55
2023-08-16T08:36:00,sdl,22.26
2023-08-16T08:37:00,sdl,22.39
2023-08-16T08:38:00,sdl,23.04
2023-08-16T08:39:00,sdl,23.93
2023-08-16T08:40:00,sdl,26.42
2023-08-16T08:41:00,sdl,25.34
2023-08-16T08:42:00,sdl,25.53
2023-08-16T08:43:00,sdl,25.31
2023-08-16T08:44:00,sdl,25.39
2023-08-16T08:45:00,sdl,25.42
2023-08-16T08:46:00,sdl,26.62
2023-08-16T08:47:00,sdl,26.56
2023-08-16T08:48:00,sdl,25.36
2023-08-16T08:49:00,sdl,25.84
2023-08-16T08:50:00,sdl,26.18
2023-08-16T08:51:00,sdl,25.86
2023-08-16T08:52:00,sdl,25.84
2023-08-16T08:53:00,sdl,25.82
2023-08-16T08:54:00,sdl,26.90
2023-08-16T08:55:00,sdl,26.81
2023-08-16T08:56:00,sdl,26.59
2023-08-16T08:57:00,sdl,26.67
2023-08-16T08:58:00,sdl,26.60
2023-08-16T08:59:00,sdl,26.62
2023-08-16T09:00:00,sdl,26.61
2023-08-16T09:01:00,sdl,26.56
2023-08-16T09:02:00,sdl,26.54
2023-08-16T09:03:00,sdl,26.51
2023-08-16T09:04:00,sdl,26.51
2023-08-16T09:05:00,sdl,26.54
2023-08-16T09:06:00,sdl,26.43
2023-08-16T09:07:00,sdl,26.67
2023-08-16T09:08:00,sdl,26.47
2023-08-16T09:09:00,sdl,23.29
2023-08-16T09:10:00,sdl,22.99
2023-08-16T09:11:00,sdl,22.13
2023-08-16T09:12:00,sdl,23.22
2023-08-16T09:13:00,sdl,22.51
2023-08-16T09:14:00,sdl,22.04
2023-08-16T09:15:00,sdl,23.52
2023-08-16T09:16:00,sdl,22.90
2023-08-16T09:17:00,sdl,22.89
2023-08-16T09:18:00,sdl,22.80
2023-08-16T09:19:00,sdl,22.88
2023-08-16T09:20:00,sdl,22.86
2023-08-16T09:21:00,sdl,24.28
2023-08-16T09:22:00,sdl,22.63
2023-08-16T09:23:00,sdl,22.48
2023-08-16T09:24:00,sdl,20.55
2023-08-16T09:25:00,sdl,20.30
2023-08-16T09:26:00,sdl,20.13
2023-08-16T09:27:00,sdl,20.05
2023-08-16T09:28:00,sdl,20.06
2023-08-16T09:29:00,sdl,20.13
2023-08-16T09:30:00,sdl,25.35
2023-08-16T09:31:00,sdl,25.04
2023-08-16T09:32:00,sdl,25.79
2023-08-16T09:33:00,sdl,25.85
2023-08-16T09:34:00,sdl,25.56
2023-08-16T09:35:00,sdl,25.66
2023-08-16T09:36:00,sdl,25.84
2023-08-16T09:37:00,sdl,25.62
2023-08-16T09:38:00,sdl,25.50
2023-08-16T09:39:00,sdl,26.35
2023-08-16T09:40:00,sdl,26.52
2023-08-16T09:41:00,sdl,26.63
2023-08-16T09:42:00,sdl,26.59
2023-08-16T09:43:00,sdl,26.57
2023-08-16T09:44:00,sdl,26.60
2023-08-16T09:45:00,sdl,26.54
2023-08-16T09:46:00,sdl,26.20
2023-08-16T09:47:00,sdl,26.56
2023-08-16T09:48:00,sdl,26.48
2023-08-16T09:49:00,sdl,26.45
2023-08-16T09:50:00,sdl,26.46
2023-08-16T09:51:00,sdl,26.42
2023-08-16T09:52:00,sdl,26.42
2023-08-16T09:53:00,sdl,26.44
2023-08-16T09:54:00,sdl,26.34
2023-08-16T09:55:00,sdl,26.55
2023-08-16T09:56:00,sdl,25.90
2023-08-16T09:57:00,sdl,25.85
2023-08-16T09:58:00,sdl,25.97
2023-08-16T09:59:00,sdl,22.98
2023-08-16T10:00:00,sdl,22.73
2023-08-16T10:01:00,sdl,22.44
2023-08-16T10:02:00,sdl,25.50
2023-08-16T10:03:00,sdl,22.94
2023-08-16T10:04:00,sdl,22.20
2023-08-16T10:05:00,sdl,22.46
2023-08-16T10:06:00,sdl,22.49
2023-08-16T10:07:00,sdl,22.50
2023-08-16T10:08:00,sdl,22.54
2023-08-16T10:09:00,sdl,22.64
2023-08-16T10:10:00,sdl,21.75
2023-08-16T10:11:00,sdl,23.50
2023-08-16T10:12:00,sdl,21.69
2023-08-16T10:13:00,sdl,22.21
2023-08-16T10:14:00,sdl,22.33
2023-08-16T10:15:00,sdl,22.24
2023-08-16T10:16:00,sdl,22.07
2023-08-16T10:17:00,sdl,23.26
2023-08-16T10:18:00,sdl,22.08
2023-08-16T10:19:00,sdl,19.29
2023-08-16T10:20:00,sdl,24.50
2023-08-16T10:21:00,sdl,24.08
2023-08-16T10:22:00,sdl,24.38
2023-08-16T10:23:00,sdl,24.48
2023-08-16T10:24:00,sdl,24.43
2023-08-16T10:25:00,sdl,24.45
2023-08-16T10:26:00,sdl,24.58
2023-08-16T10:27:00,sdl,24.61
2023-08-16T10:28:00,sdl,24.57
2023-08-16T10:29:00,sdl,24.69
2023-08-16T10:30:00,sdl,24.55
2023-08-16T10:31:00,sdl,25.73
2023-08-16T10:32:00,sdl,25.97
2023-08-16T10:33:00,sdl,25.97
2023-08-16T10:34:00,sdl,25.66
2023-08-16T10:35:00,sdl,25.65
2023-08-16T10:36:00,sdl,25.65
2023-08-16T10:37:00,sdl,25.61
2023-08-16T10:38:00,sdl,25.98
2023-08-16T10:39:00,sdl,26.12
2023-08-16T10:40:00,sdl,25.98
2023-08-16T10:41:00,sdl,25.96
2023-08-16T10:42:00,sdl,25.99
2023-08-16T10:43:00,sdl,25.96
2023-08-16T10:44:00,sdl,25.94
2023-08-16T10:45:00,sdl,25.88
2023-08-16T10:46:00,sdl,25.21
2023-08-16T10:47:00,sdl,23.89
2023-08-16T10:48:00,sdl,18.86
2023-08-16T10:49:00,sdl,18.32
2023-08-16T10:50:00,sdl,18.28
2023-08-16T10:51:00,sdl,18.55
2023-08-16T10:52:00,sdl,18.69
2023-08-16T10:53:00,sdl,18.74
2023-08-16T10:54:00,sdl,19.19
2023-08-16T10:55:00,sdl,18.48
2023-08-16T10:56:00,sdl,18.42
2023-08-16T10:57:00,sdl,18.09
2023-08-16T10:58:00,sdl,18.32
2023-08-16T10:59:00,sdl,18.71
2023-08-16T11:00:00,sdl,19.94
2023-08-16T11:01:00,sdl,19.85
2023-08-16T11:02:00,sdl,18.82
2023-08-16T11:03:00,sdl,19.00
2023-08-16T11:04:00,sdl,19.43
2023-08-16T11:05:00,sdl,19.36
2023-08-16T11:06:00,sdl,21.18
2023-08-16T11:07:00,sdl,21.34
2023-08-16T11:08:00,sdl,23.98
2023-08-16T11:09:00,sdl,23.83
2023-08-16T11:10:00,sdl,24.53
2023-08-16T11:11:00,sdl,24.32
2023-08-16T11:12:00,sdl,24.93
2023-08-16T11:13:00,sdl,24.67
2023-08-16T11:14:00,sdl,24.50
2023-08-16T11:15:00,sdl,24.66
2023-08-16T11:16:00,sdl,24.69
2023-08-16T11:17:00,sdl,24.55
2023-08-16T11:18:00,sdl,24.71
2023-08-16T11:19:00,sdl,24.63
2023-08-16T11:20:00,sdl,24.59
2023-08-16T11:21:00,sdl,24.58
2023-08-16T11:22:00,sdl,25.27
2023-08-16T11:23:00,sdl,24.78
2023-08-16T11:24:00,sdl,24.84
2023-08-16T11:25:00,sdl,24.85
2023-08-16T11:26:00,sdl,25.04
2023-08-16T11:27:00,sdl,25.16
2023-08-16T11:28:00,sdl,25.10
2023-08-16T11:29:00,sdl,24.76
2023-08-16T11:30:00,sdl,24.96
2023-08-16T11:31:00,sdl,24.83
2023-08-16T11:32:00,sdl,24.78
2023-08-16T11:33:00,sdl,25.29
2023-08-16T11:34:00,sdl,25.27
2023-08-16T11:35:00,sdl,23.38
2023-08-16T11:36:00,sdl,23.64
2023-08-16T11:37:00,sdl,23.63
2023-08-16T11:38:00,sdl,23.80
2023-08-16T11:39:00,sdl,17.42
2023-08-16T11:40:00,sdl,17.17
2023-08-16T11:41:00,sdl,18.82
2023-08-16T11:42:00,sdl,18.93
2023-08-16T11:43:00,sdl,19.05
2023-08-16T11:44:00,sdl,19.22
2023-08-16T11:45:00,sdl,18.66
2023-08-16T11:46:00,sdl,18.58
2023-08-16T11:47:00,sdl,18.84
2023-08-16T11:48:00,sdl,18.23
2023-08-16T11:49:00,sdl,18.19
2023-08-16T11:50:00,sdl,18.06
2023-08-16T11:51:00,sdl,18.92
2023-08-16T11:52:00,sdl,18.30
2023-08-16T11:53:00,sdl,18.11
2023-08-16T11:54:00,sdl,17.68
2023-08-16T11:55:00,sdl,17.82
2023-08-16T11:56:00,sdl,17.93
2023-08-16T11:57:00,sdl,24.84
2023-08-16T11:58:00,sdl,24.10
2023-08-16T11:59:00,sdl,24.41
2023-08-16T12:00:00,sdl,24.45
2023-08-16T12:01:00,sdl,24.80
2023-08-16T12:02:00,sdl,24.62
2023-08-16T12:03:00,sdl,24.78
2023-08-16T12:04:00,sdl,24.50
2023-08-16T12:05:00,sdl,24.89
2023-08-16T12:06:00,sdl,24.61
2023-08-16T12:07:00,sdl,24.49
2023-08-16T12:08:00,sdl,24.71
2023-08-16T12:09:00,sdl,24.45
2023-08-16T12:10:00,sdl,24.41
2023-08-16T12:11:00,sdl,24.35
2023-08-16T12:12:00,sdl,23.47
2023-08-16T12:13:00,sdl,23.68
2023-08-16T12:14:00,sdl,23.46
2023-08-16T12:15:00,sdl,23.40
2023-08-16T12:16:00,sdl,23.82
2023-08-16T12:17:00,sdl,23.24
2023-08-16T12:18:00,sdl,23.27
2023-08-16T12:19:00,sdl,23.35
2023-08-16T12:20:00,sdl,23.27
2023-08-16T12:21:00,sdl,23.32
2023-08-16T12:22:00,sdl,23.32
2023-08-16T12:23:00,sdl,24.86
2023-08-16T12:24:00,sdl,24.76
2023-08-16T12:25:00,sdl,24.77
2023-08-16T12:26:00,sdl,24.65
2023-08-16T12:27:00,sdl,24.59
2023-08-16T12:28:00,sdl,24.90
2023-08-16T12:29:00,sdl,19.77
2023-08-16T12:30:00,sdl,19.53
2023-08-16T12:31:00,sdl,19.11
2023-08-16T12:32:00,sdl,19.09
2023-08-16T12:33:00,sdl,19.01
2023-08-16T12:34:00,sdl,19.03
2023-08-16T12:35:00,sdl,19.30
2023-08-16T12:36:00,sdl,19.12
2023-08-16T12:37:00,sdl,19.06
2023-08-16T12:38:00,sdl,19.74
2023-08-16T12:39:00,sdl,18.98
2023-08-16T12:40:00,sdl,19.39
2023-08-16T12:41:00,sdl,19.87
2023-08-16T12:42:00,sdl,19.46
2023-08-16T12:43:00,sdl,19.99
2023-08-16T12:44:00,sdl,19.92
2023-08-16T12:45:00,sdl,16.61
2023-08-16T12:46:00,sdl,17.62
2023-08-16T12:47:00,sdl,23.43
2023-08-16T12:48:00,sdl,22.87
2023-08-16T12:49:00,sdl,22.51
2023-08-16T12:50:00,sdl,22.62
2023-08-16T12:51:00,sdl,23.62
2023-08-16T12:52:00,sdl,22.58
2023-08-16T12:53:00,sdl,23.27
2023-08-16T12:54:00,sdl,22.73
2023-08-16T12:55:00,sdl,22.65
2023-08-16T12:56:00,sdl,22.80
2023-08-16T12:57:00,sdl,22.76
2023-08-16T12:58:00,sdl,23.09
2023-08-16T12:59:00,sdl,23.10
2023-08-16T13:00:00,sdl,22.78
2023-08-16T13:01:00,sdl,22.95
2023-08-16T13:02:00,sdl,22.93
2023-08-16T13:03:00,sdl,22.93
2023-08-16T13:04:00,sdl,23.10
2023-08-16T13:05:00,sdl,23.79
2023-08-16T13:06:00,sdl,25.09
2023-08-16T13:07:00,sdl,24.97
2023-08-16T13:08:00,sdl,24.94
2023-08-16T13:09:00,sdl,25.01
2023-08-16T13:10:00,sdl,24.70
2023-08-16T13:11:00,sdl,24.98
2023-08-16T13:12:00,sdl,25.03
2023-08-16T13:13:00,sdl,24.99
2023-08-16T13:14:00,sdl,24.66
2023-08-16T13:15:00,sdl,24.73
2023-08-16T13:16:00,sdl,24.82
2023-08-16T13:17:00,sdl,24.75
2023-08-16T13:18:00,sdl,24.81
2023-08-16T13:19:00,sdl,25.16
2023-08-16T13:20:00,sdl,25.21
2023-08-16T13:21:00,sdl,20.68
2023-08-16T13:22:00,sdl,20.73